| time (UTC) | temp F | wind direction | speed MPH | gust MPH | rain 1hr in | rain 24hr in | rain mn in | humidity % | barometer mb |
| 20260508141852 | 51 | 236 | 1.0 | 4.0 | 0.00 | 0.00 | 0.00 | 81 | 1022.8 |
| 20260508141409 | 51 | 86 | 1.0 | 2.0 | 0.00 | 0.00 | 0.00 | 82 | 1022.6 |
| 20260508140844 | 50 | 15 | 0.0 | 0.0 | 0.00 | 0.00 | 0.00 | 83 | 1022.6 |
| 20260508140338 | 49 | 14 | 0.0 | 2.0 | 0.00 | 0.00 | 0.00 | 83 | 1022.5 |
| 20260508135836 | 49 | 223 | 0.0 | 2.0 | 0.00 | 0.00 | 0.00 | 83 | 1022.5 |
| 20260508135342 | 49 | 238 | 0.0 | 0.0 | 0.00 | 0.00 | 0.00 | 83 | 1022.4 |
| 20260508134840 | 49 | 240 | 0.0 | 0.0 | 0.00 | 0.00 | 0.00 | 82 | 1022.2 |
| 20260508134359 | 49 | 240 | 0.0 | 1.0 | 0.00 | 0.00 | 0.00 | 82 | 1022.2 |
| 20260508133834 | 49 | 240 | 0.0 | 1.0 | 0.00 | 0.00 | 0.00 | 82 | 1022.0 |
| 20260508133332 | 50 | 231 | 0.0 | 2.0 | 0.00 | 0.00 | 0.00 | 81 | 1021.8 |
| 20260508132848 | 50 | 248 | 0.0 | 3.0 | 0.00 | 0.00 | 0.00 | 81 | 1021.8 |
| 20260508132345 | 50 | 260 | 1.0 | 3.0 | 0.00 | 0.00 | 0.00 | 81 | 1021.8 |
| 20260508131906 | 50 | 237 | 1.0 | 3.0 | 0.00 | 0.00 | 0.00 | 81 | 1021.5 |
| 20260508131341 | 50 | 255 | 0.0 | 2.0 | 0.00 | 0.00 | 0.00 | 81 | 1021.5 |
| 20260508130838 | 50 | 250 | 0.0 | 0.0 | 0.00 | 0.00 | 0.00 | 80 | 1021.3 |
| 20260508130336 | 50 | 250 | 0.0 | 0.0 | 0.00 | 0.00 | 0.00 | 79 | 1021.2 |
| 20260508125855 | 50 | 250 | 0.0 | 0.0 | 0.00 | 0.00 | 0.00 | 79 | 1021.0 |
| 20260508125352 | 50 | 250 | 0.0 | 0.0 | 0.00 | 0.00 | 0.00 | 79 | 1021.0 |
| 20260508124848 | 50 | 250 | 0.0 | 2.0 | 0.00 | 0.00 | 0.00 | 79 | 1021.1 |
| 20260508124346 | 50 | 260 | 0.0 | 1.0 | 0.00 | 0.00 | 0.00 | 80 | 1020.9 |
| 20260508123845 | 50 | 171 | 0.0 | 0.0 | 0.00 | 0.00 | 0.00 | 79 | 1020.8 |
| 20260508123341 | 51 | 171 | 0.0 | 0.0 | 0.00 | 0.00 | 0.00 | 79 | 1020.8 |
| 20260508122904 | 51 | 247 | 0.0 | 0.0 | 0.00 | 0.00 | 0.00 | 80 | 1020.8 |
| 20260508122341 | 51 | 247 | 0.0 | 0.0 | 0.00 | 0.00 | 0.00 | 79 | 1020.7 |
| 20260508121839 | 51 | 248 | 0.0 | 0.0 | 0.00 | 0.00 | 0.00 | 80 | 1020.8 |
| 20260508121405 | 51 | 248 | 0.0 | 0.0 | 0.00 | 0.00 | 0.00 | 81 | 1020.8 |
| 20260508120840 | 51 | 272 | 0.0 | 0.0 | 0.00 | 0.00 | 0.00 | 81 | 1020.7 |
| 20260508120331 | 51 | 272 | 0.0 | 0.0 | 0.00 | 0.00 | 0.00 | 81 | 1020.7 |
| 20260508115857 | 51 | 244 | 0.0 | 1.0 | 0.00 | 0.00 | 0.00 | 80 | 1020.7 |
| 20260508115354 | 51 | 245 | 0.0 | 1.0 | 0.00 | 0.00 | 0.00 | 81 | 1020.6 |
| 20260508114851 | 50 | 264 | 0.0 | 0.0 | 0.00 | 0.00 | 0.00 | 83 | 1020.5 |
| 20260508114351 | 50 | 264 | 0.0 | 0.0 | 0.00 | 0.00 | 0.00 | 83 | 1020.4 |
| 20260508113848 | 50 | 264 | 0.0 | 0.0 | 0.00 | 0.00 | 0.00 | 84 | 1020.4 |
| 20260508113345 | 50 | 264 | 0.0 | 0.0 | 0.00 | 0.00 | 0.00 | 85 | 1020.4 |
| 20260508112840 | 50 | 264 | 0.0 | 1.0 | 0.00 | 0.00 | 0.00 | 85 | 1020.4 |
| 20260508112357 | 50 | 263 | 0.0 | 1.0 | 0.00 | 0.00 | 0.00 | 84 | 1020.3 |
| 20260508111853 | 50 | 267 | 0.0 | 0.0 | 0.00 | 0.00 | 0.00 | 84 | 1020.3 |
| 20260508111350 | 50 | 275 | 0.0 | 0.0 | 0.00 | 0.00 | 0.00 | 85 | 1020.2 |
| 20260508110906 | 50 | 215 | 0.0 | 0.0 | 0.00 | 0.00 | 0.00 | 84 | 1020.1 |
| 20260508110411 | 50 | 216 | 0.0 | 0.0 | 0.00 | 0.00 | 0.00 | 84 | 1020.1 |
| 20260508105845 | 50 | 215 | 0.0 | 0.0 | 0.00 | 0.00 | 0.00 | 84 | 1020.0 |
| 20260508105338 | 50 | 95 | 0.0 | 0.0 | 0.00 | 0.00 | 0.00 | 83 | 1019.8 |
| 20260508104859 | 50 | 96 | 0.0 | 0.0 | 0.00 | 0.00 | 0.00 | 83 | 1019.8 |
| 20260508104353 | 50 | 96 | 0.0 | 0.0 | 0.00 | 0.00 | 0.00 | 84 | 1019.7 |
| 20260508103848 | 50 | 235 | 0.0 | 0.0 | 0.00 | 0.00 | 0.00 | 84 | 1019.7 |
| 20260508103403 | 50 | 235 | 0.0 | 0.0 | 0.00 | 0.00 | 0.00 | 84 | 1019.7 |
| 20260508102831 | 50 | 235 | 0.0 | 0.0 | 0.00 | 0.00 | 0.00 | 84 | 1019.6 |
| 20260508102357 | 50 | 235 | 0.0 | 0.0 | 0.00 | 0.00 | 0.00 | 84 | 1019.6 |
| 20260508101834 | 50 | 236 | 0.0 | 0.0 | 0.00 | 0.00 | 0.00 | 84 | 1019.7 |
| 20260508101330 | 50 | 235 | 0.0 | 0.0 | 0.00 | 0.00 | 0.00 | 83 | 1019.6 |
| 20260508100848 | 50 | 235 | 0.0 | 1.0 | 0.00 | 0.00 | 0.00 | 83 | 1019.5 |
| 20260508100340 | 50 | 235 | 0.0 | 1.0 | 0.00 | 0.00 | 0.00 | 83 | 1019.5 |
| 20260508095836 | 50 | 217 | 0.0 | 0.0 | 0.00 | 0.00 | 0.00 | 82 | 1019.3 |
| 20260508095335 | 50 | 70 | 0.0 | 2.0 | 0.00 | 0.00 | 0.00 | 82 | 1019.3 |
| 20260508094832 | 50 | 70 | 0.0 | 2.0 | 0.00 | 0.00 | 0.00 | 82 | 1019.3 |
| 20260508094418 | 50 | 76 | 0.0 | 0.0 | 0.00 | 0.00 | 0.00 | 82 | 1019.3 |
| 20260508093854 | 50 | 77 | 0.0 | 0.0 | 0.00 | 0.00 | 0.00 | 83 | 1019.3 |
| 20260508093351 | 50 | 77 | 0.0 | 0.0 | 0.00 | 0.00 | 0.00 | 82 | 1019.2 |
| 20260508092848 | 50 | 77 | 0.0 | 0.0 | 0.00 | 0.00 | 0.00 | 81 | 1019.3 |
| 20260508092343 | 50 | 77 | 0.0 | 0.0 | 0.00 | 0.00 | 0.00 | 81 | 1019.2 |
| 20260508091843 | 51 | 77 | 0.0 | 0.0 | 0.00 | 0.00 | 0.00 | 80 | 1019.1 |
| 20260508091337 | 51 | 77 | 0.0 | 0.0 | 0.00 | 0.00 | 0.00 | 80 | 1019.2 |
| 20260508090834 | 51 | 77 | 0.0 | 0.0 | 0.00 | 0.00 | 0.00 | 80 | 1019.1 |
| 20260508090345 | 51 | 77 | 0.0 | 0.0 | 0.00 | 0.00 | 0.00 | 80 | 1019.1 |
| 20260508085852 | 51 | 77 | 0.0 | 0.0 | 0.00 | 0.00 | 0.00 | 80 | 1019.1 |
| 20260508085347 | 51 | 77 | 0.0 | 0.0 | 0.00 | 0.00 | 0.00 | 80 | 1019.1 |
| 20260508084844 | 51 | 76 | 0.0 | 0.0 | 0.00 | 0.00 | 0.00 | 80 | 1019.1 |
| 20260508084349 | 51 | 77 | 0.0 | 0.0 | 0.00 | 0.00 | 0.00 | 80 | 1019.0 |
| 20260508083845 | 51 | 77 | 0.0 | 0.0 | 0.00 | 0.00 | 0.00 | 79 | 1019.0 |
| 20260508083403 | 51 | 77 | 0.0 | 0.0 | 0.00 | 0.00 | 0.00 | 80 | 1018.9 |
| 20260508082857 | 51 | 79 | 0.0 | 0.0 | 0.00 | 0.00 | 0.00 | 79 | 1019.0 |
| 20260508082353 | 51 | 79 | 0.0 | 0.0 | 0.00 | 0.00 | 0.00 | 79 | 1018.8 |
| 20260508081847 | 52 | 79 | 0.0 | 0.0 | 0.00 | 0.00 | 0.00 | 78 | 1018.8 |
| 20260508081343 | 52 | 79 | 0.0 | 0.0 | 0.00 | 0.00 | 0.00 | 78 | 1018.9 |
| 20260508080903 | 52 | 79 | 0.0 | 0.0 | 0.00 | 0.00 | 0.00 | 77 | 1018.8 |
| 20260508080341 | 52 | 79 | 0.0 | 0.0 | 0.00 | 0.00 | 0.00 | 76 | 1018.8 |
| 20260508075854 | 52 | 79 | 0.0 | 0.0 | 0.00 | 0.00 | 0.00 | 76 | 1018.7 |
| 20260508075351 | 53 | 79 | 0.0 | 0.0 | 0.00 | 0.00 | 0.00 | 75 | 1018.7 |
| 20260508074904 | 53 | 79 | 0.0 | 0.0 | 0.00 | 0.00 | 0.00 | 75 | 1018.6 |
| 20260508074409 | 53 | 79 | 0.0 | 1.0 | 0.00 | 0.00 | 0.00 | 76 | 1018.6 |
| 20260508073843 | 53 | 79 | 0.0 | 1.0 | 0.00 | 0.00 | 0.00 | 75 | 1018.6 |
| 20260508073340 | 53 | 79 | 0.0 | 0.0 | 0.00 | 0.00 | 0.00 | 75 | 1018.5 |
| 20260508072859 | 53 | 79 | 0.0 | 0.0 | 0.00 | 0.00 | 0.00 | 74 | 1018.6 |
| 20260508072353 | 53 | 79 | 0.0 | 0.0 | 0.00 | 0.00 | 0.00 | 72 | 1018.4 |
| 20260508071354 | 54 | 79 | 0.0 | 0.0 | 0.00 | 0.00 | 0.00 | 71 | 1018.4 |
| 20260508070850 | 54 | 84 | 0.0 | 0.0 | 0.00 | 0.00 | 0.00 | 72 | 1018.5 |
| 20260508070346 | 54 | 84 | 0.0 | 0.0 | 0.00 | 0.00 | 0.00 | 71 | 1018.5 |
| 20260508065844 | 55 | 84 | 0.0 | 0.0 | 0.00 | 0.00 | 0.00 | 70 | 1018.7 |
| 20260508065336 | 55 | 84 | 0.0 | 0.0 | 0.00 | 0.00 | 0.00 | 70 | 1018.6 |
| 20260508064855 | 55 | 84 | 0.0 | 0.0 | 0.00 | 0.00 | 0.00 | 69 | 1018.6 |
| 20260508064352 | 56 | 85 | 0.0 | 0.0 | 0.00 | 0.00 | 0.00 | 69 | 1018.5 |
| 20260508063830 | 56 | 85 | 0.0 | 1.0 | 0.00 | 0.00 | 0.00 | 69 | 1018.6 |
| 20260508063347 | 56 | 85 | 0.0 | 1.0 | 0.00 | 0.00 | 0.00 | 69 | 1018.5 |
| 20260508062845 | 56 | 91 | 0.0 | 1.0 | 0.00 | 0.00 | 0.00 | 69 | 1018.5 |
| 20260508062404 | 56 | 91 | 0.0 | 1.0 | 0.00 | 0.00 | 0.00 | 69 | 1018.4 |
| 20260508061900 | 56 | 94 | 0.0 | 0.0 | 0.00 | 0.00 | 0.00 | 69 | 1018.5 |
| 20260508061338 | 56 | 70 | 0.0 | 0.0 | 0.00 | 0.00 | 0.00 | 70 | 1018.5 |
| 20260508060834 | 56 | 70 | 0.0 | 0.0 | 0.00 | 0.00 | 0.00 | 69 | 1018.5 |
| 20260508060346 | 56 | 70 | 0.0 | 1.0 | 0.00 | 0.00 | 0.00 | 69 | 1018.5 |
| 20260508055843 | 56 | 69 | 0.0 | 2.0 | 0.00 | 0.00 | 0.00 | 69 | 1018.5 |
| 20260508055341 | 57 | 65 | 1.0 | 2.0 | 0.00 | 0.00 | 0.00 | 68 | 1018.4 |
| 20260508054838 | 57 | 117 | 0.0 | 1.0 | 0.00 | 0.00 | 0.00 | 67 | 1018.4 |
| 20260508054359 | 57 | 117 | 0.0 | 0.0 | 0.00 | 0.00 | 0.00 | 66 | 1018.3 |
| 20260508053837 | 57 | 67 | 0.0 | 0.0 | 0.00 | 0.00 | 0.00 | 66 | 1018.5 |
| 20260508053334 | 57 | 66 | 0.0 | 0.0 | 0.00 | 0.00 | 0.00 | 65 | 1018.3 |
| 20260508052832 | 58 | 66 | 0.0 | 0.0 | 0.00 | 0.00 | 0.00 | 65 | 1018.3 |
| 20260508052349 | 58 | 66 | 0.0 | 0.0 | 0.00 | 0.00 | 0.00 | 65 | 1018.4 |
| 20260508051841 | 58 | 66 | 0.0 | 0.0 | 0.00 | 0.00 | 0.00 | 64 | 1018.4 |
| 20260508051338 | 58 | 66 | 0.0 | 0.0 | 0.00 | 0.00 | 0.00 | 63 | 1018.4 |
| 20260508050842 | 58 | 66 | 0.0 | 0.0 | 0.00 | 0.00 | 0.00 | 62 | 1018.3 |
| 20260508050338 | 59 | 66 | 0.0 | 0.0 | 0.00 | 0.00 | 0.00 | 62 | 1018.3 |
| 20260508045858 | 59 | 66 | 0.0 | 0.0 | 0.00 | 0.00 | 0.00 | 62 | 1018.3 |
| 20260508045354 | 59 | 66 | 0.0 | 0.0 | 0.00 | 0.00 | 0.00 | 61 | 1018.3 |
| 20260508044849 | 60 | 66 | 0.0 | 0.0 | 0.00 | 0.00 | 0.00 | 60 | 1018.4 |
| 20260508044346 | 60 | 66 | 0.0 | 0.0 | 0.00 | 0.00 | 0.00 | 59 | 1018.3 |
| 20260508043845 | 60 | 66 | 0.0 | 0.0 | 0.00 | 0.00 | 0.00 | 59 | 1018.3 |
| 20260508043345 | 60 | 66 | 0.0 | 0.0 | 0.00 | 0.00 | 0.00 | 55 | 1018.2 |
| 20260508042837 | 61 | 66 | 0.0 | 0.0 | 0.00 | 0.00 | 0.00 | 57 | 1018.2 |
| 20260508042335 | 61 | 66 | 0.0 | 0.0 | 0.00 | 0.00 | 0.00 | 57 | 1018.2 |
| 20260508041835 | 62 | 66 | 0.0 | 0.0 | 0.00 | 0.00 | 0.00 | 56 | 1018.1 |
| 20260508041332 | 62 | 66 | 0.0 | 0.0 | 0.00 | 0.00 | 0.00 | 56 | 1018.1 |
| 20260508040849 | 62 | 65 | 0.0 | 0.0 | 0.00 | 0.00 | 0.00 | 55 | 1018.0 |
| 20260508040345 | 63 | 66 | 0.0 | 0.0 | 0.00 | 0.00 | 0.00 | 54 | 1018.0 |
| 20260508035912 | 63 | 65 | 0.0 | 0.0 | 0.00 | 0.00 | 0.00 | 53 | 1017.9 |
| 20260508035349 | 64 | 65 | 0.0 | 0.0 | 0.00 | 0.00 | 0.00 | 52 | 1017.9 |
| 20260508034907 | 64 | 65 | 0.0 | 0.0 | 0.00 | 0.00 | 0.00 | 51 | 1017.9 |
| 20260508034402 | 65 | 71 | 0.0 | 0.0 | 0.00 | 0.00 | 0.00 | 51 | 1017.9 |
| 20260508033837 | 65 | 71 | 0.0 | 1.0 | 0.00 | 0.00 | 0.00 | 49 | 1017.7 |
| 20260508033355 | 66 | 71 | 0.0 | 1.0 | 0.00 | 0.00 | 0.00 | 48 | 1017.7 |
| 20260508032832 | 66 | 72 | 0.0 | 1.0 | 0.00 | 0.00 | 0.00 | 47 | 1017.6 |
| 20260508032410 | 66 | 72 | 0.0 | 1.0 | 0.00 | 0.00 | 0.00 | 47 | 1017.6 |
| 20260508031853 | 66 | 357 | 0.0 | 1.0 | 0.00 | 0.00 | 0.00 | 47 | 1017.6 |
| 20260508031330 | 67 | 357 | 0.0 | 1.0 | 0.00 | 0.00 | 0.00 | 48 | 1017.6 |
| 20260508030848 | 67 | 351 | 0.0 | 1.0 | 0.00 | 0.00 | 0.00 | 45 | 1017.5 |
| 20260508030341 | 67 | 351 | 0.0 | 1.0 | 0.00 | 0.00 | 0.00 | 45 | 1017.4 |
| 20260508025845 | 68 | 19 | 0.0 | 1.0 | 0.00 | 0.00 | 0.00 | 44 | 1017.5 |
| 20260508025343 | 68 | 20 | 0.0 | 2.0 | 0.00 | 0.00 | 0.00 | 44 | 1017.4 |
| 20260508024834 | 68 | 86 | 1.0 | 2.0 | 0.00 | 0.00 | 0.00 | 43 | 1017.4 |
| 20260508024354 | 69 | 30 | 0.0 | 3.0 | 0.00 | 0.00 | 0.00 | 43 | 1017.5 |
| 20260508023830 | 69 | 46 | 2.0 | 3.0 | 0.00 | 0.00 | 0.00 | 43 | 1017.4 |
| 20260508023347 | 69 | 51 | 0.0 | 4.0 | 0.00 | 0.00 | 0.00 | 43 | 1017.5 |
| 20260508022844 | 69 | 78 | 1.0 | 4.0 | 0.00 | 0.00 | 0.00 | 43 | 1017.5 |
| 20260508022348 | 69 | 96 | 0.0 | 4.0 | 0.00 | 0.00 | 0.00 | 43 | 1017.5 |
| 20260508021841 | 69 | 40 | 2.0 | 6.0 | 0.00 | 0.00 | 0.00 | 42 | 1017.5 |
| 20260508021339 | 69 | 107 | 2.0 | 8.0 | 0.00 | 0.00 | 0.00 | 42 | 1017.5 |
| 20260508020836 | 70 | 37 | 4.0 | 8.0 | 0.00 | 0.00 | 0.00 | 42 | 1017.5 |
| 20260508020357 | 70 | 39 | 1.0 | 4.0 | 0.00 | 0.00 | 0.00 | 42 | 1017.6 |
| 20260508015852 | 71 | 88 | 0.0 | 5.0 | 0.00 | 0.00 | 0.00 | 42 | 1017.7 |
| 20260508015418 | 71 | 77 | 1.0 | 5.0 | 0.00 | 0.00 | 0.00 | 42 | 1017.7 |
| 20260508014831 | 72 | 46 | 0.0 | 4.0 | 0.00 | 0.00 | 0.00 | 41 | 1017.7 |
| 20260508014349 | 72 | 39 | 2.0 | 4.0 | 0.00 | 0.00 | 0.00 | 40 | 1017.7 |
| 20260508013846 | 72 | 146 | 1.0 | 4.0 | 0.00 | 0.00 | 0.00 | 40 | 1017.7 |
| 20260508013346 | 73 | 130 | 3.0 | 4.0 | 0.00 | 0.00 | 0.00 | 37 | 1017.7 |
| 20260508012843 | 74 | 239 | 1.0 | 2.0 | 0.00 | 0.00 | 0.00 | 34 | 1017.7 |
| 20260508012342 | 74 | 252 | 0.0 | 3.0 | 0.00 | 0.00 | 0.00 | 33 | 1017.7 |
| 20260508011839 | 73 | 160 | 1.0 | 3.0 | 0.00 | 0.00 | 0.00 | 33 | 1017.7 |
| 20260508011339 | 74 | 124 | 0.0 | 3.0 | 0.00 | 0.00 | 0.00 | 32 | 1017.7 |
| 20260508010859 | 74 | 225 | 1.0 | 3.0 | 0.00 | 0.00 | 0.00 | 32 | 1017.7 |
| 20260508010332 | 74 | 226 | 1.0 | 5.0 | 0.00 | 0.00 | 0.00 | 34 | 1017.9 |
| 20260508005849 | 73 | 241 | 3.0 | 5.0 | 0.00 | 0.00 | 0.00 | 31 | 1018.0 |
| 20260508005345 | 74 | 239 | 0.0 | 3.0 | 0.00 | 0.00 | 0.00 | 32 | 1018.0 |
| 20260508004839 | 74 | 277 | 1.0 | 3.0 | 0.00 | 0.00 | 0.00 | 32 | 1018.0 |
| 20260508004336 | 74 | 199 | 2.0 | 5.0 | 0.00 | 0.00 | 0.00 | 30 | 1018.2 |
| 20260508003901 | 74 | 263 | 2.0 | 5.0 | 0.00 | 0.00 | 0.00 | 31 | 1018.3 |
| 20260508003338 | 74 | 266 | 0.0 | 3.0 | 0.00 | 0.00 | 0.00 | 32 | 1018.3 |
| 20260508002849 | 74 | 231 | 1.0 | 3.0 | 0.00 | 0.00 | 0.00 | 31 | 1018.3 |
| 20260508002357 | 74 | 304 | 0.0 | 8.0 | 0.00 | 0.00 | 0.00 | 33 | 1018.3 |
| 20260508001852 | 75 | 206 | 3.0 | 8.0 | 0.00 | 0.00 | 0.00 | 32 | 1018.4 |
| 20260508001350 | 74 | 226 | 0.0 | 3.0 | 0.00 | 0.00 | 0.00 | 37 | 1018.4 |
| 20260508000848 | 74 | 224 | 0.0 | 2.0 | 0.00 | 0.00 | 0.00 | 37 | 1018.5 |
| 20260508000345 | 73 | 248 | 1.0 | 3.0 | 0.00 | 0.00 | 0.00 | 38 | 1018.5 |
| 20260507235901 | 73 | 46 | 1.0 | 4.0 | 0.00 | 0.00 | 0.00 | 35 | 1018.6 |
| 20260507235338 | 73 | 280 | 1.0 | 5.0 | 0.00 | 0.00 | 0.00 | 33 | 1018.6 |
| 20260507234836 | 72 | 245 | 2.0 | 4.0 | 0.00 | 0.00 | 0.00 | 39 | 1018.6 |
| 20260507234334 | 73 | 82 | 2.0 | 4.0 | 0.00 | 0.00 | 0.00 | 37 | 1018.7 |
| 20260507233855 | 72 | 210 | 0.0 | 6.0 | 0.00 | 0.00 | 0.00 | 39 | 1018.8 |
| 20260507233352 | 72 | 268 | 2.0 | 6.0 | 0.00 | 0.00 | 0.00 | 38 | 1018.9 |
| 20260507232849 | 73 | 253 | 4.0 | 6.0 | 0.00 | 0.00 | 0.00 | 39 | 1018.9 |
| 20260507232347 | 73 | 82 | 0.0 | 6.0 | 0.00 | 0.00 | 0.00 | 38 | 1018.9 |
| 20260507231853 | 73 | 224 | 2.0 | 6.0 | 0.00 | 0.00 | 0.00 | 40 | 1019.0 |
| 20260507231349 | 73 | 255 | 2.0 | 6.0 | 0.00 | 0.00 | 0.00 | 39 | 1019.0 |
| 20260507230846 | 74 | 246 | 2.0 | 6.0 | 0.00 | 0.00 | 0.00 | 38 | 1019.0 |
| 20260507230340 | 73 | 250 | 1.0 | 4.0 | 0.00 | 0.00 | 0.00 | 39 | 1019.1 |
| 20260507225838 | 74 | 26 | 1.0 | 3.0 | 0.00 | 0.00 | 0.00 | 37 | 1019.2 |
| 20260507225357 | 73 | 86 | 0.0 | 5.0 | 0.00 | 0.00 | 0.00 | 39 | 1019.2 |
| 20260507224853 | 72 | 311 | 1.0 | 5.0 | 0.00 | 0.00 | 0.00 | 40 | 1019.3 |
| 20260507224350 | 73 | 33 | 1.0 | 3.0 | 0.00 | 0.00 | 0.00 | 39 | 1019.3 |
| 20260507223907 | 73 | 214 | 0.0 | 3.0 | 0.00 | 0.00 | 0.00 | 41 | 1019.4 |
| 20260507223344 | 72 | 220 | 1.0 | 4.0 | 0.00 | 0.00 | 0.00 | 40 | 1019.3 |
| 20260507222840 | 72 | 266 | 1.0 | 4.0 | 0.00 | 0.00 | 0.00 | 43 | 1019.5 |
| 20260507222348 | 72 | 279 | 1.0 | 4.0 | 0.00 | 0.00 | 0.00 | 41 | 1019.4 |
| 20260507221840 | 71 | 271 | 0.0 | 5.0 | 0.00 | 0.00 | 0.00 | 45 | 1019.4 |
| 20260507221337 | 71 | 233 | 2.0 | 5.0 | 0.00 | 0.00 | 0.00 | 42 | 1019.5 |
| 20260507220830 | 71 | 218 | 2.0 | 4.0 | 0.00 | 0.00 | 0.00 | 43 | 1019.6 |
| 20260507220346 | 71 | 86 | 1.0 | 5.0 | 0.00 | 0.00 | 0.00 | 40 | 1019.6 |
| 20260507215912 | 72 | 265 | 1.0 | 5.0 | 0.00 | 0.00 | 0.00 | 41 | 1019.6 |
| 20260507215409 | 71 | 234 | 0.0 | 3.0 | 0.00 | 0.00 | 0.00 | 44 | 1019.9 |
| 20260507214845 | 71 | 114 | 1.0 | 4.0 | 0.00 | 0.00 | 0.00 | 42 | 1019.9 |
| 20260507214343 | 71 | 37 | 0.0 | 3.0 | 0.00 | 0.00 | 0.00 | 43 | 1019.9 |
| 20260507213900 | 71 | 241 | 2.0 | 3.0 | 0.00 | 0.00 | 0.00 | 43 | 1020.1 |
| 20260507213358 | 71 | 278 | 1.0 | 4.0 | 0.00 | 0.00 | 0.00 | 46 | 1020.1 |
| 20260507212849 | 71 | 202 | 2.0 | 7.0 | 0.00 | 0.00 | 0.00 | 47 | 1020.1 |
| 20260507212345 | 70 | 219 | 3.0 | 7.0 | 0.00 | 0.00 | 0.00 | 45 | 1020.2 |
| 20260507211838 | 70 | 226 | 0.0 | 4.0 | 0.00 | 0.00 | 0.00 | 47 | 1020.2 |
| 20260507211357 | 69 | 215 | 1.0 | 4.0 | 0.00 | 0.00 | 0.00 | 47 | 1020.2 |
| 20260507210853 | 69 | 242 | 2.0 | 4.0 | 0.00 | 0.00 | 0.00 | 47 | 1020.3 |
| 20260507210410 | 69 | 260 | 1.0 | 7.0 | 0.00 | 0.00 | 0.00 | 47 | 1020.3 |
| 20260507205846 | 70 | 237 | 3.0 | 7.0 | 0.00 | 0.00 | 0.00 | 45 | 1020.5 |
| 20260507205413 | 70 | 262 | 2.0 | 5.0 | 0.00 | 0.00 | 0.00 | 49 | 1020.6 |
| 20260507204831 | 70 | 287 | 0.0 | 6.0 | 0.00 | 0.00 | 0.00 | 49 | 1020.6 |
| 20260507204347 | 68 | 302 | 1.0 | 6.0 | 0.00 | 0.00 | 0.00 | 51 | 1020.6 |
| 20260507203838 | 68 | 245 | 1.0 | 5.0 | 0.00 | 0.00 | 0.00 | 53 | 1020.7 |
| 20260507203336 | 68 | 89 | 2.0 | 4.0 | 0.00 | 0.00 | 0.00 | 50 | 1020.7 |
| 20260507202856 | 68 | 41 | 0.0 | 5.0 | 0.00 | 0.00 | 0.00 | 54 | 1020.8 |
| 20260507202332 | 68 | 224 | 2.0 | 5.0 | 0.00 | 0.00 | 0.00 | 55 | 1020.9 |
| 20260507201848 | 68 | 230 | 0.0 | 3.0 | 0.00 | 0.00 | 0.00 | 53 | 1020.9 |
| 20260507201346 | 66 | 239 | 1.0 | 5.0 | 0.00 | 0.00 | 0.00 | 56 | 1020.9 |
| 20260507200844 | 66 | 260 | 3.0 | 5.0 | 0.00 | 0.00 | 0.00 | 56 | 1021.0 |
| 20260507200341 | 65 | 203 | 1.0 | 4.0 | 0.00 | 0.00 | 0.00 | 55 | 1021.0 |
| 20260507195846 | 64 | 282 | 2.0 | 6.0 | 0.00 | 0.00 | 0.00 | 56 | 1021.1 |
| 20260507195341 | 64 | 221 | 2.0 | 8.0 | 0.00 | 0.00 | 0.00 | 56 | 1021.0 |
| 20260507194839 | 64 | 69 | 2.0 | 8.0 | 0.00 | 0.00 | 0.00 | 56 | 1021.2 |
| 20260507194355 | 65 | 259 | 3.0 | 6.0 | 0.00 | 0.00 | 0.00 | 55 | 1021.2 |
| 20260507193853 | 65 | 236 | 1.0 | 7.0 | 0.00 | 0.00 | 0.00 | 59 | 1021.3 |
| 20260507193332 | 65 | 252 | 5.0 | 7.0 | 0.00 | 0.00 | 0.00 | 55 | 1021.4 |
| 20260507192848 | 66 | 238 | 2.0 | 4.0 | 0.00 | 0.00 | 0.00 | 56 | 1021.4 |
| 20260507192345 | 65 | 183 | 1.0 | 6.0 | 0.00 | 0.00 | 0.00 | 56 | 1021.5 |
| 20260507191842 | 65 | 272 | 4.0 | 6.0 | 0.00 | 0.00 | 0.00 | 56 | 1021.5 |
| 20260507191348 | 65 | 230 | 1.0 | 4.0 | 0.00 | 0.00 | 0.00 | 57 | 1021.5 |
| 20260507190845 | 64 | 22 | 1.0 | 4.0 | 0.00 | 0.00 | 0.00 | 56 | 1021.6 |
| 20260507190343 | 66 | 336 | 1.0 | 3.0 | 0.00 | 0.00 | 0.00 | 57 | 1021.7 |
| 20260507185839 | 65 | 143 | 1.0 | 3.0 | 0.00 | 0.00 | 0.00 | 58 | 1021.8 |
| 20260507185353 | 64 | 276 | 1.0 | 3.0 | 0.00 | 0.00 | 0.00 | 58 | 1021.8 |
| 20260507184910 | 64 | 349 | 1.0 | 4.0 | 0.00 | 0.00 | 0.00 | 58 | 1021.9 |
| 20260507184346 | 63 | 245 | 1.0 | 4.0 | 0.00 | 0.00 | 0.00 | 60 | 1021.9 |
| 20260507183843 | 63 | 233 | 1.0 | 4.0 | 0.00 | 0.00 | 0.00 | 59 | 1021.9 |
| 20260507183350 | 62 | 73 | 1.0 | 5.0 | 0.00 | 0.00 | 0.00 | 60 | 1022.0 |
| 20260507182847 | 63 | 112 | 2.0 | 5.0 | 0.00 | 0.00 | 0.00 | 59 | 1021.9 |
| 20260507182404 | 64 | 32 | 1.0 | 4.0 | 0.00 | 0.00 | 0.00 | 58 | 1022.0 |
| 20260507181843 | 63 | 14 | 2.0 | 4.0 | 0.00 | 0.00 | 0.00 | 60 | 1022.1 |
| 20260507181340 | 62 | 287 | 1.0 | 3.0 | 0.00 | 0.00 | 0.00 | 61 | 1022.2 |
| 20260507180836 | 61 | 233 | 1.0 | 3.0 | 0.00 | 0.00 | 0.00 | 62 | 1022.3 |
| 20260507180419 | 61 | 244 | 0.0 | 6.0 | 0.00 | 0.00 | 0.00 | 64 | 1022.2 |
| 20260507175852 | 60 | 357 | 2.0 | 6.0 | 0.00 | 0.00 | 0.00 | 64 | 1022.3 |
| 20260507175350 | 61 | 92 | 2.0 | 5.0 | 0.00 | 0.00 | 0.00 | 61 | 1022.3 |
| 20260507174847 | 62 | 146 | 0.0 | 3.0 | 0.00 | 0.00 | 0.00 | 62 | 1022.4 |
| 20260507174405 | 61 | 327 | 1.0 | 3.0 | 0.00 | 0.00 | 0.00 | 65 | 1022.4 |
| 20260507173841 | 60 | 77 | 1.0 | 3.0 | 0.00 | 0.00 | 0.00 | 65 | 1022.4 |
| 20260507173342 | 59 | 4 | 1.0 | 4.0 | 0.00 | 0.00 | 0.00 | 66 | 1022.5 |
| 20260507172838 | 59 | 219 | 2.0 | 4.0 | 0.00 | 0.00 | 0.00 | 66 | 1022.4 |
| 20260507172335 | 59 | 257 | 1.0 | 3.0 | 0.00 | 0.00 | 0.00 | 65 | 1022.4 |
| 20260507171917 | 59 | 271 | 1.0 | 4.0 | 0.00 | 0.00 | 0.00 | 66 | 1022.5 |
| 20260507171352 | 58 | 108 | 0.0 | 5.0 | 0.00 | 0.00 | 0.00 | 67 | 1022.5 |
| 20260507170831 | 58 | 227 | 1.0 | 5.0 | 0.00 | 0.00 | 0.00 | 65 | 1022.5 |
| 20260507170347 | 59 | 225 | 2.0 | 5.0 | 0.00 | 0.00 | 0.00 | 66 | 1022.6 |
| 20260507165844 | 59 | 266 | 0.0 | 3.0 | 0.00 | 0.00 | 0.00 | 66 | 1022.6 |
| 20260507165349 | 58 | 268 | 1.0 | 5.0 | 0.00 | 0.00 | 0.00 | 68 | 1022.6 |
| 20260507164846 | 57 | 276 | 2.0 | 5.0 | 0.00 | 0.00 | 0.00 | 68 | 1022.7 |
| 20260507164344 | 57 | 321 | 1.0 | 3.0 | 0.00 | 0.00 | 0.00 | 68 | 1022.7 |
| 20260507163842 | 57 | 356 | 1.0 | 5.0 | 0.00 | 0.00 | 0.00 | 69 | 1022.6 |
| 20260507163339 | 57 | 267 | 3.0 | 5.0 | 0.00 | 0.00 | 0.00 | 68 | 1022.7 |
| 20260507162854 | 57 | 284 | 1.0 | 5.0 | 0.00 | 0.00 | 0.00 | 69 | 1022.7 |
| 20260507162351 | 57 | 312 | 0.0 | 5.0 | 0.00 | 0.00 | 0.00 | 68 | 1022.7 |
| 20260507161909 | 57 | 103 | 1.0 | 4.0 | 0.00 | 0.00 | 0.00 | 69 | 1022.8 |
| 20260507161343 | 55 | 207 | 0.0 | 4.0 | 0.00 | 0.00 | 0.00 | 71 | 1022.7 |
| 20260507160840 | 55 | 58 | 1.0 | 6.0 | 0.00 | 0.00 | 0.00 | 71 | 1022.7 |
| 20260507160407 | 54 | 55 | 1.0 | 8.0 | 0.00 | 0.00 | 0.00 | 71 | 1022.7 |
| 20260507155903 | 54 | 85 | 1.0 | 8.0 | 0.00 | 0.00 | 0.00 | 71 | 1022.7 |
| 20260507155349 | 54 | 69 | 1.0 | 7.0 | 0.00 | 0.00 | 0.00 | 72 | 1022.7 |
| 20260507154845 | 54 | 359 | 2.0 | 7.0 | 0.00 | 0.00 | 0.00 | 71 | 1022.7 |
| 20260507154339 | 54 | 261 | 1.0 | 4.0 | 0.00 | 0.00 | 0.00 | 73 | 1022.8 |
| 20260507153900 | 54 | 292 | 0.0 | 4.0 | 0.00 | 0.00 | 0.00 | 73 | 1022.8 |
| 20260507153337 | 53 | 344 | 1.0 | 4.0 | 0.00 | 0.00 | 0.00 | 73 | 1022.8 |
| 20260507152837 | 53 | 34 | 1.0 | 4.0 | 0.00 | 0.00 | 0.00 | 73 | 1022.9 |
| 20260507152331 | 53 | 264 | 1.0 | 4.0 | 0.00 | 0.00 | 0.00 | 73 | 1022.8 |
| 20260507151849 | 53 | 180 | 1.0 | 4.0 | 0.00 | 0.00 | 0.00 | 73 | 1022.8 |
| 20260507151346 | 53 | 267 | 0.0 | 2.0 | 0.00 | 0.00 | 0.00 | 73 | 1022.9 |
| 20260507150845 | 53 | 17 | 0.0 | 6.0 | 0.00 | 0.00 | 0.00 | 74 | 1022.8 |
| 20260507150405 | 52 | 252 | 3.0 | 6.0 | 0.00 | 0.00 | 0.00 | 73 | 1022.8 |
| 20260507145836 | 52 | 16 | 1.0 | 6.0 | 0.00 | 0.00 | 0.00 | 74 | 1022.8 |
| 20260507145335 | 52 | 81 | 2.0 | 7.0 | 0.00 | 0.00 | 0.00 | 75 | 1022.8 |
| 20260507144855 | 52 | 92 | 2.0 | 9.0 | 0.00 | 0.00 | 0.00 | 74 | 1022.8 |
| 20260507144335 | 52 | 44 | 2.0 | 9.0 | 0.00 | 0.00 | 0.00 | 74 | 1022.8 |
| 20260507143830 | 52 | 352 | 1.0 | 6.0 | 0.00 | 0.00 | 0.00 | 74 | 1022.7 |
| 20260507143417 | 52 | 86 | 3.0 | 6.0 | 0.00 | 0.00 | 0.00 | 74 | 1022.6 |
| 20260507142853 | 52 | 26 | 2.0 | 6.0 | 0.00 | 0.00 | 0.00 | 75 | 1022.6 |
| 20260507142349 | 52 | 86 | 2.0 | 6.0 | 0.00 | 0.00 | 0.00 | 75 | 1022.6 |